Weather History for Munising, MI

Change the Weather History Date:

Sunday, April 28, 2013

  Actual Average (KISQ) Record (KISQ)
Temperature  
Mean Temperature 58 °F -  
Max Temperature 72 °F 53 °F 81 °F (1990)
Min Temperature 44 °F 34 °F 21 °F (2006)
Degree Days  
Heating Degree Days 7    
Growing Degree Days 8 (Base 50)    
Moisture  
Dew Point 35 °F    
Average Humidity 44    
Maximum Humidity 63    
Minimum Humidity 24    
Precipitation  
Precipitation 0.00 in - - ()
Sea Level Pressure  
Sea Level Pressure 29.89 in    
Wind  
Wind Speed 9 mph (South)    
Max Wind Speed 15 mph    
Max Gust Speed 24 mph    
Averages and records for this station are not official NWS values.
T = Trace of Precipitation, MM = Missing Value Source: NWS Daily Summary

Daily Weather History Graph

Daily Weather History Graph

Search for Another Location

Airport:

Trip Planner

Search our weather history database for the weather conditions in past years. The results will help you decide how hot, cold, wet, or windy it might be!

Date:

Astronomy

Apr. 28, 2013 Rise Set
Actual Time 6:36 AM EDT 8:52 PM EDT
Civil Twilight 6:03 AM EDT 9:25 PM EDT
Nautical Twilight 5:22 AM EDT 10:06 PM EDT
Astronomical Twilight 4:36 AM EDT 10:52 PM EDT
Moon No Moon Rise 8:46 AM EDT (4/28)
Length of Visible Light 15h 21m
Length of Day
14h 15m
Waning Gibbous, 89% of the Moon is Illuminated
Apr 28
Waning Gibbous
May 2
Last Quarter
May 9
New
May 18
First Quarter
May 25
Full

Hourly Weather History & Observations

Time (EDT) Temp. Windchill Dew Point Humidity Pressure Visibility Wind Dir Wind Speed Gust Speed Precip Events Conditions
12:56 AM 53.1 °F - 37.9 °F 57% 30.00 in - SSW 10.4 mph - N/A   Unknown
1:56 AM 51.1 °F - 36.0 °F 56% 29.99 in - South 8.1 mph - N/A   Unknown
2:56 AM 50.0 °F - 35.1 °F 57% 29.98 in - South 6.9 mph - N/A   Unknown
3:56 AM 48.9 °F - 34.0 °F 56% 29.97 in - South 6.9 mph - N/A   Unknown
4:56 AM 45.0 °F 40.6 °F 32.0 °F 60% 29.97 in - South 8.1 mph - N/A   Unknown
5:56 AM 44.1 °F 39.5 °F 32.0 °F 63% 29.96 in - South 8.1 mph - N/A   Unknown
6:56 AM 45.0 °F 41.2 °F 33.1 °F 63% 29.96 in - South 6.9 mph - N/A   Unknown
7:56 AM 46.9 °F - 33.1 °F 59% 29.97 in - South 6.9 mph - N/A   Unknown
8:56 AM 52.0 °F - 34.0 °F 50% 29.97 in - South 9.2 mph - N/A   Unknown
9:56 AM 57.0 °F - 37.0 °F 47% 29.96 in - South 10.4 mph - N/A   Unknown
10:56 AM 63.0 °F - 39.9 °F 43% 29.93 in - South 9.2 mph - N/A   Unknown
11:56 AM 66.0 °F - 39.9 °F 38% 29.91 in - South 10.4 mph 17.3 mph N/A   Unknown
12:56 PM 68.0 °F - 41.0 °F 37% 29.89 in - South 9.2 mph 24.2 mph N/A   Unknown
1:56 PM 69.1 °F - 39.0 °F 33% 29.86 in - South 8.1 mph - N/A   Unknown
2:56 PM 71.1 °F - 35.1 °F 27% 29.85 in - South 12.7 mph 20.7 mph N/A   Unknown
3:56 PM 72.0 °F - 35.1 °F 26% 29.83 in - South 15.0 mph 20.7 mph N/A   Unknown
4:56 PM 71.1 °F - 34.0 °F 26% 29.81 in - SSW 12.7 mph 19.6 mph N/A   Unknown
5:56 PM 71.1 °F - 32.0 °F 24% 29.79 in - South 12.7 mph 21.9 mph N/A   Unknown
6:56 PM 70.0 °F - 32.0 °F 25% 29.80 in - South 9.2 mph - N/A   Unknown
7:56 PM 64.9 °F - 33.1 °F 31% 29.80 in - South 8.1 mph - N/A   Unknown
8:56 PM 60.1 °F - 33.1 °F 36% 29.79 in - South 5.8 mph - N/A   Unknown
9:56 PM 55.9 °F - 33.1 °F 42% 29.80 in - South 5.8 mph - N/A   Unknown
10:56 PM 55.0 °F - 34.0 °F 45% 29.80 in - SSW 5.8 mph - N/A   Unknown
11:56 PM 53.1 °F - 34.0 °F 48% 29.79 in - SSW 8.1 mph - N/A   Unknown